Regional Weather Roundup
Issued by NWS

Home | Current Version | Previous Version | Text Only | Print | Product List | Glossary Off
Versions: 1 2 3 4 5 6 7 8 9 10 11 12 13 14 15 16 17 18 19 20 21 22 23 24 25 26 27 28 29 30 31 32 33 34 35 36 37 38 39 40 41 42 43 44 45 46 47 48 49 50

654
ASUS44 KLIX 210701
RWRLA
LOUISIANA WEATHER ROUNDUP
NATIONAL WEATHER SERVICE NEW ORLEANS LA
100 AM CST FRI NOV 21 2014

NOTE: "FAIR" INDICATES FEW OR NO CLOUDS BELOW 12,000 FEET WITH NO
      SIGNIFICANT WEATHER AND/OR OBSTRUCTIONS TO VISIBILITY.
      SKY/WX - SKY CONDITION AND SIGNIFICANT WEATHER.
      TMP - AIR TEMPERATURE.    DP   - DEWPOINT TEMPERATURE.
      RH  - RELATIVE HUMIDITY.  PRES - PRESSURE.
      HX  - HEAT INDEX.         WCI  - WIND CHILL INDEX.

*  THESE STATIONS ARE NOT NWS OR FAA STATIONS AND ARE NOT UNDER
   NWS QUALITY CONTROL.

LAZ040-048-061>063-065-066-069-210800-
SOUTHEAST LOUISIANA

CITY           SKY/WX    TMP DP  RH WIND       PRES   REMARKS
N.O. AUDUBON     N/A     52  47  82 MISG        N/A
N.O. INTL ARPT CLEAR     53  45  74 SE8       30.22F
N.O. LAKEFRONT CLEAR     53  45  74 S8        30.24S
N.O. DOWNTOWN* FAIR      55  43  62 CALM      30.24S
SLIDELL        CLEAR     41  38  89 CALM      30.24R
BATON ROUGE    CLEAR     51  44  77 CALM      30.22S
BOOTHVILLE     CLEAR     55  50  83 SE5       30.25S
BELLE CHASSE   CLEAR     46  42  86 CALM      30.24R
BOGALUSA*        N/A     42  39  90 CALM      30.24F
NEW ROADS*     FAIR      53  45  75 SE3       30.22S
GONZALES*      NOT AVBL
HAMMOND*       CLEAR     46  43  87 CALM      30.25R
HOUMA*         CLEAR     50  48  90 CALM      30.23R
PORT FOURCHON* SUNNY     63  50  63 SE10      30.26R

$$

LAZ041-044-053-054-210800-
SOUTHWEST LOUISIANA

CITY           SKY/WX    TMP DP  RH WIND       PRES   REMARKS
LAKE CHARLES   CLOUDY    60  51  72 SE12      30.16F
LAFAYETTE      CLOUDY    54  48  80 CALM      30.21S
PATTERSON      MOCLDY    54  48  82 SE6       30.23F
SALT POINT       N/A     55  50  83 E5        30.20F
NEW IBERIA     CLOUDY    54  48  80 SE3       30.22S
CHENAULT AIRPK CLOUDY    59  51  76 SE13      30.17F

$$

LAZ027-028-210800-
CENTRAL LOUISIANA

CITY           SKY/WX    TMP DP  RH WIND       PRES   REMARKS
FORT POLK      CLOUDY    56  49  79 SE9       30.17F
ALEXANDRIA INT MOCLDY    53  47  79 SE3       30.19S
ALEXANDRIA     PTCLDY    47  45  93 CALM      30.21S

$$

LAZ001-002-210800-
NORTHWEST LOUISIANA

CITY           SKY/WX    TMP DP  RH WIND       PRES   REMARKS
SHREVEPORT     CLOUDY    57  54  89 SE6       30.14S
BARKSDALE AFB  CLOUDY    56  53  91 E2        30.16R
DTN SHREVEPORT LGT RAIN  56  53  90 CALM      30.16R

$$

LAZ014-016-210800-
NORTHEAST LOUISIANA

CITY           SKY/WX    TMP DP  RH WIND       PRES   REMARKS
MONROE         PTCLDY    52  49  89 S5        30.21S
TALLULAH       PTCLDY    47  45  93 SE3       30.23S

$$




USA.gov is the U.S. government's official web portal to all federal, state and local government web resources and services.